TimeCDT,TemperatureF,Dew PointF,Humidity,Sea Level PressureIn,VisibilityMPH,Wind Direction,Wind SpeedMPH,Gust SpeedMPH,PrecipitationIn,Events,Conditions,WindDirDegrees,DateUTC
12:56 AM,62.1,44.1,52,29.81,10.0,NNE,10.4,-,N/A,,Clear,20,2013-05-15 05:56:00
1:56 AM,59.0,44.1,58,29.82,10.0,NNE,8.1,-,N/A,,Clear,20,2013-05-15 06:56:00
2:56 AM,53.1,43.0,69,29.85,10.0,Calm,Calm,-,N/A,,Clear,0,2013-05-15 07:56:00
3:56 AM,50.0,42.1,74,29.86,10.0,NNE,3.5,-,N/A,,Clear,20,2013-05-15 08:56:00
4:56 AM,54.0,43.0,66,29.83,10.0,NE,13.8,-,N/A,,Clear,40,2013-05-15 09:56:00
5:56 AM,55.9,43.0,62,29.91,10.0,North,4.6,-,N/A,,Partly Cloudy,360,2013-05-15 10:56:00
6:56 AM,54.0,45.0,72,29.93,10.0,North,3.5,-,N/A,,Clear,360,2013-05-15 11:56:00
7:56 AM,59.0,46.0,62,29.95,10.0,Calm,Calm,-,N/A,,Mostly Cloudy,0,2013-05-15 12:56:00
8:56 AM,62.1,46.9,58,29.96,10.0,SE,3.5,-,N/A,,Partly Cloudy,130,2013-05-15 13:56:00
9:56 AM,64.9,46.9,52,29.96,10.0,Calm,Calm,-,0.00,,Scattered Clouds,0,2013-05-15 14:56:00
10:56 AM,70.0,45.0,41,29.94,10.0,SE,3.5,-,N/A,,Clear,130,2013-05-15 15:56:00
11:56 AM,73.0,46.9,39,29.92,10.0,Variable,3.5,-,N/A,,Clear,0,2013-05-15 16:56:00
12:56 PM,75.0,48.0,38,29.89,10.0,Calm,Calm,-,N/A,,Clear,0,2013-05-15 17:56:00
1:56 PM,78.1,48.0,35,29.90,10.0,Calm,Calm,-,N/A,,Scattered Clouds,0,2013-05-15 18:56:00
2:56 PM,79.0,46.9,32,29.89,10.0,NE,4.6,-,N/A,,Mostly Cloudy,50,2013-05-15 19:56:00
3:56 PM,77.0,48.9,37,29.89,10.0,North,8.1,-,N/A,,Partly Cloudy,350,2013-05-15 20:56:00
4:56 PM,79.0,48.9,35,29.87,10.0,NNE,6.9,-,N/A,,Partly Cloudy,20,2013-05-15 21:56:00
5:56 PM,79.0,46.9,32,29.86,10.0,NW,6.9,-,N/A,,Partly Cloudy,320,2013-05-15 22:56:00
6:56 PM,78.1,50.0,37,29.86,10.0,North,6.9,-,N/A,,Mostly Cloudy,360,2013-05-15 23:56:00
7:56 PM,73.0,48.9,42,29.86,10.0,North,6.9,-,N/A,,Mostly Cloudy,360,2013-05-16 00:56:00
8:56 PM,71.1,48.0,44,29.86,10.0,North,4.6,-,N/A,,Mostly Cloudy,10,2013-05-16 01:56:00
9:56 PM,66.0,48.0,52,29.87,10.0,NNE,8.1,-,N/A,,Mostly Cloudy,30,2013-05-16 02:56:00
10:56 PM,63.0,48.0,58,29.88,10.0,NNE,3.5,-,N/A,,Mostly Cloudy,30,2013-05-16 03:56:00
11:56 PM,62.1,46.0,56,29.89,10.0,Calm,Calm,-,N/A,,Partly Cloudy,0,2013-05-16 04:56:00